Hourly Weather Verhojansk

Today, 2 July, Thursday

Time Temperature Precipitation Wind Pressure Humidity
00:00 +16°C° 0 mm 2 mps 721 mmHg 41%
01:00 +16°C° 0 mm 2 mps 721 mmHg 43%
02:00 +16°C° 0 mm 2 mps 720 mmHg 45%
03:00 +16°C° 0 mm 2 mps 720 mmHg 46%
04:00 +17°C° 0 mm 2 mps 720 mmHg 43%
05:00 +19°C° 0 mm 1 mps 720 mmHg 40%
06:00 +20°C° 0 mm 1 mps 720 mmHg 36%
07:00 +20°C° 0 mm 1 mps 719 mmHg 34%
08:00 +21°C° 0 mm 1 mps 719 mmHg 31%
09:00 +21°C° 0 mm 1 mps 718 mmHg 31%
10:00 +21°C° 0 mm 1 mps 718 mmHg 31%
11:00 +20°C° 0 mm 2 mps 717 mmHg 32%
12:00 +20°C° 0 mm 2 mps 717 mmHg 32%
13:00 +20°C° 0.1 mm 2 mps 717 mmHg 38%
14:00 +19°C° 0.1 mm 3 mps 716 mmHg 43%
15:00 +17°C° 0 mm 3 mps 716 mmHg 53%
16:00 +17°C° 0.2 mm 3 mps 716 mmHg 58%
17:00 +16°C° 0.2 mm 3 mps 715 mmHg 64%
18:00 +16°C° 0.2 mm 3 mps 715 mmHg 69%
19:00 +14°C° 0 mm 3 mps 715 mmHg 72%
20:00 +15°C° 0 mm 2 mps 715 mmHg 74%
21:00 +15°C° 0 mm 2 mps 715 mmHg 75%
22:00 +14°C° 0 mm 2 mps 715 mmHg 80%
23:00 +13°C° 0 mm 2 mps 714 mmHg 84%

Tomorrow, 3 July, Friday

Time Temperature Precipitation Wind Pressure Humidity
00:00 +12°C° 0 mm 2 mps 714 mmHg 88%
01:00 +12°C° 0 mm 2 mps 714 mmHg 88%
02:00 +12°C° 0 mm 1 mps 714 mmHg 88%
03:00 +12°C° 0 mm 1 mps 714 mmHg 88%
04:00 +13°C° 0 mm 1 mps 714 mmHg 81%
05:00 +14°C° 0 mm 1 mps 715 mmHg 74%
06:00 +15°C° 0 mm 1 mps 715 mmHg 67%
07:00 +16°C° 0.2 mm 2 mps 715 mmHg 61%
08:00 +18°C° 0.2 mm 3 mps 715 mmHg 56%
09:00 +19°C° 0.2 mm 4 mps 715 mmHg 50%
10:00 +20°C° 0.3 mm 4 mps 715 mmHg 44%
11:00 +21°C° 0.3 mm 5 mps 715 mmHg 37%
12:00 +21°C° 0.3 mm 6 mps 715 mmHg 31%
13:00 +22°C° 0 mm 7 mps 715 mmHg 29%
14:00 +22°C° 0 mm 8 mps 715 mmHg 28%
15:00 +22°C° 0 mm 9 mps 715 mmHg 27%
16:00 +21°C° 0 mm 10 mps 715 mmHg 30%
17:00 +18°C° 0 mm 11 mps 715 mmHg 32%
18:00 +17°C° 0 mm 12 mps 715 mmHg 34%
19:00 +14°C° 0 mm 12 mps 715 mmHg 40%
20:00 +13°C° 0 mm 11 mps 715 mmHg 45%
21:00 +11°C° 0 mm 11 mps 716 mmHg 50%
22:00 +9°C° 0 mm 10 mps 716 mmHg 53%
23:00 +8°C° 0 mm 10 mps 716 mmHg 56%

Day after tomorrow, 4 July, Saturday

Time Temperature Precipitation Wind Pressure Humidity
00:00 +7°C° 0 mm 9 mps 717 mmHg 60%
01:00 +7°C° 0 mm 9 mps 717 mmHg 63%
02:00 +7°C° 0 mm 9 mps 717 mmHg 65%
03:00 +7°C° 0 mm 10 mps 717 mmHg 68%
04:00 +7°C° 0 mm 9 mps 717 mmHg 68%
05:00 +7°C° 0 mm 9 mps 717 mmHg 68%
06:00 +7°C° 0 mm 9 mps 717 mmHg 67%
07:00 +8°C° 0 mm 9 mps 717 mmHg 64%
08:00 +8°C° 0 mm 10 mps 717 mmHg 61%
09:00 +9°C° 0 mm 10 mps 717 mmHg 58%
10:00 +11°C° 0 mm 10 mps 718 mmHg 55%
11:00 +11°C° 0 mm 10 mps 718 mmHg 52%
12:00 +12°C° 0 mm 11 mps 718 mmHg 50%
13:00 +12°C° 0 mm 11 mps 718 mmHg 48%
14:00 +12°C° 0 mm 10 mps 717 mmHg 47%
15:00 +12°C° 0 mm 10 mps 717 mmHg 45%
16:00 +12°C° 0 mm 11 mps 718 mmHg 43%
17:00 +12°C° 0 mm 11 mps 718 mmHg 42%
18:00 +12°C° 0 mm 11 mps 718 mmHg 40%
19:00 +11°C° 0 mm 11 mps 718 mmHg 44%
20:00 +8°C° 0 mm 10 mps 719 mmHg 48%
21:00 +7°C° 0 mm 10 mps 719 mmHg 52%
22:00 +6°C° 0 mm 9 mps 719 mmHg 57%
23:00 +6°C° 0 mm 8 mps 719 mmHg 62%

5 July, Sunday

Time Temperature Precipitation Wind Pressure Humidity
00:00 +5°C° 0 mm 7 mps 719 mmHg 67%
01:00 +4°C° 0 mm 7 mps 719 mmHg 69%
02:00 +4°C° 0 mm 7 mps 719 mmHg 71%
03:00 +3°C° 0 mm 7 mps 719 mmHg 73%
04:00 +3°C° 0 mm 7 mps 719 mmHg 73%
05:00 +3°C° 0 mm 6 mps 719 mmHg 73%
06:00 +3°C° 0 mm 6 mps 719 mmHg 72%
07:00 +4°C° 0 mm 6 mps 719 mmHg 72%
08:00 +5°C° 0 mm 5 mps 719 mmHg 71%
09:00 +5°C° 0 mm 5 mps 719 mmHg 70%
10:00 +6°C° 0 mm 5 mps 719 mmHg 70%
11:00 +6°C° 0 mm 5 mps 718 mmHg 70%
12:00 +6°C° 0 mm 4 mps 718 mmHg 70%
13:00 +6°C° 0 mm 4 mps 718 mmHg 70%
14:00 +6°C° 0 mm 4 mps 719 mmHg 70%
15:00 +6°C° 0 mm 4 mps 719 mmHg 71%
16:00 +6°C° 0 mm 4 mps 719 mmHg 70%
17:00 +7°C° 0 mm 3 mps 719 mmHg 69%
18:00 +7°C° 0 mm 3 mps 719 mmHg 69%
19:00 +5°C° 0 mm 3 mps 719 mmHg 70%
20:00 +6°C° 0 mm 2 mps 719 mmHg 71%
21:00 +6°C° 0 mm 2 mps 719 mmHg 72%
22:00 +5°C° 0 mm 2 mps 719 mmHg 73%
23:00 +5°C° 0 mm 2 mps 719 mmHg 75%

6 July, Monday

Time Temperature Precipitation Wind Pressure Humidity
00:00 +6°C° 0 mm 1 mps 719 mmHg 77%
01:00 +5°C° 0 mm 1 mps 719 mmHg 78%
02:00 +5°C° 0 mm 1 mps 719 mmHg 80%
03:00 +5°C° 0 mm 1 mps 720 mmHg 81%
04:00 +6°C° 0 mm 1 mps 720 mmHg 77%
05:00 +6°C° 0 mm 1 mps 720 mmHg 73%
06:00 +7°C° 0 mm 1 mps 720 mmHg 69%
07:00 +8°C° 0 mm 1 mps 719 mmHg 63%
08:00 +10°C° 0 mm 1 mps 719 mmHg 57%
09:00 +11°C° 0 mm 1 mps 719 mmHg 51%
10:00 +12°C° 0 mm 1 mps 719 mmHg 49%
11:00 +12°C° 0 mm 1 mps 719 mmHg 47%
12:00 +13°C° 0 mm 1 mps 719 mmHg 45%
13:00 +14°C° 0 mm 1 mps 719 mmHg 43%
14:00 +14°C° 0 mm 1 mps 719 mmHg 42%
15:00 +15°C° 0 mm 1 mps 719 mmHg 41%
16:00 +15°C° 0 mm 2 mps 719 mmHg 41%
17:00 +15°C° 0 mm 2 mps 718 mmHg 41%
18:00 +16°C° 0 mm 3 mps 718 mmHg 41%
19:00 +14°C° 0 mm 3 mps 718 mmHg 44%
20:00 +13°C° 0 mm 3 mps 718 mmHg 48%
21:00 +13°C° 0 mm 4 mps 718 mmHg 52%
22:00 +11°C° 0 mm 3 mps 718 mmHg 56%
23:00 +10°C° 0 mm 3 mps 718 mmHg 60%

7 July, Tuesday

Time Temperature Precipitation Wind Pressure Humidity
00:00 +9°C° 0 mm 3 mps 718 mmHg 64%
01:00 +9°C° 0 mm 3 mps 719 mmHg 66%
02:00 +8°C° 0 mm 2 mps 719 mmHg 68%
03:00 +8°C° 0 mm 2 mps 719 mmHg 70%
04:00 +9°C° 0.1 mm 2 mps 719 mmHg 71%
05:00 +9°C° 0.1 mm 2 mps 719 mmHg 71%
06:00 +10°C° 0.1 mm 3 mps 719 mmHg 72%
07:00 +12°C° 0.1 mm 2 mps 719 mmHg 72%
08:00 +12°C° 0.1 mm 2 mps 719 mmHg 73%
09:00 +12°C° 0.1 mm 1 mps 719 mmHg 73%
10:00 +13°C° 0.1 mm 1 mps 719 mmHg 71%
11:00 +14°C° 0.1 mm 1 mps 719 mmHg 69%
12:00 +14°C° 0.1 mm 1 mps 719 mmHg 66%
13:00 +15°C° 0 mm 2 mps 719 mmHg 63%
14:00 +16°C° 0 mm 2 mps 719 mmHg 59%
15:00 +16°C° 0 mm 3 mps 719 mmHg 55%
16:00 +17°C° 0 mm 2 mps 719 mmHg 54%
17:00 +17°C° 0 mm 2 mps 719 mmHg 52%
18:00 +17°C° 0 mm 2 mps 719 mmHg 51%
19:00 +16°C° 0 mm 2 mps 719 mmHg 55%
20:00 +15°C° 0 mm 1 mps 719 mmHg 60%
21:00 +14°C° 0 mm 1 mps 719 mmHg 65%
22:00 +13°C° 0 mm 1 mps 718 mmHg 70%
23:00 +12°C° 0 mm 2 mps 718 mmHg 76%
Show more